When you browse on this site, cookies collect data to enhance your experience and personalize the content and advertising you see.
Visit our Privacy Policy to learn more. By continuing to use the site, you agree to this use of cookies and data.
  • In Hungary
  • List of Countries
  • For 7 days
  • Water Temperature
  • Satellite Maps
  • Weather Map
  • News
  • Weather Widgets
  • user-avatar
    Login

    Hourly Weather Skala Rachoni

    Today, 20 June, Thursday

    Time Temperature Precipitation Wind Pressure Humidity
    00:00 +24°C° 0 mm 2 mps 757 mmHg 68%
    01:00 +23°C° 0 mm 2 mps 757 mmHg 68%
    02:00 +23°C° 0 mm 2 mps 757 mmHg 65%
    03:00 +23°C° 0 mm 2 mps 757 mmHg 63%
    04:00 +23°C° 0 mm 2 mps 757 mmHg 62%
    05:00 +21°C° 0 mm 2 mps 756 mmHg 61%
    06:00 +24°C° 0 mm 2 mps 757 mmHg 56%
    07:00 +26°C° 0 mm 1 mps 757 mmHg 51%
    08:00 +28°C° 0 mm 1 mps 757 mmHg 47%
    09:00 +30°C° 0 mm 1 mps 757 mmHg 43%
    10:00 +31°C° 0 mm 1 mps 757 mmHg 39%
    11:00 +32°C° 0 mm 1 mps 757 mmHg 35%
    12:00 +32°C° 0 mm 2 mps 756 mmHg 35%
    13:00 +33°C° 0 mm 3 mps 756 mmHg 36%
    14:00 +33°C° 0 mm 4 mps 756 mmHg 36%
    15:00 +33°C° 0 mm 4 mps 756 mmHg 38%
    16:00 +31°C° 0 mm 3 mps 756 mmHg 41%
    17:00 +31°C° 0 mm 3 mps 756 mmHg 43%
    18:00 +29°C° 0 mm 3 mps 756 mmHg 49%
    19:00 +28°C° 0 mm 2 mps 756 mmHg 54%
    20:00 +27°C° 0 mm 2 mps 756 mmHg 60%
    21:00 +26°C° 0 mm 2 mps 756 mmHg 62%
    22:00 +26°C° 0 mm 2 mps 756 mmHg 64%
    23:00 +25°C° 0 mm 2 mps 757 mmHg 67%

    Tomorrow, 21 June, Friday

    Time Temperature Precipitation Wind Pressure Humidity
    00:00 +24°C° 0 mm 2 mps 757 mmHg 65%
    01:00 +24°C° 0 mm 2 mps 757 mmHg 64%
    02:00 +24°C° 0 mm 2 mps 757 mmHg 63%
    03:00 +24°C° 0 mm 2 mps 757 mmHg 62%
    04:00 +23°C° 0 mm 2 mps 757 mmHg 61%
    05:00 +23°C° 0 mm 2 mps 757 mmHg 60%
    06:00 +25°C° 0 mm 2 mps 757 mmHg 56%
    07:00 +27°C° 0 mm 1 mps 757 mmHg 52%
    08:00 +29°C° 0 mm 1 mps 758 mmHg 47%
    09:00 +30°C° 0 mm 1 mps 758 mmHg 44%
    10:00 +31°C° 0 mm 1 mps 758 mmHg 41%
    11:00 +32°C° 0 mm 1 mps 758 mmHg 38%
    12:00 +32°C° 0 mm 2 mps 758 mmHg 39%
    13:00 +33°C° 0 mm 3 mps 757 mmHg 40%
    14:00 +33°C° 0 mm 3 mps 757 mmHg 40%
    15:00 +33°C° 0 mm 3 mps 757 mmHg 42%
    16:00 +33°C° 0 mm 3 mps 757 mmHg 43%
    17:00 +32°C° 0 mm 2 mps 757 mmHg 44%
    18:00 +30°C° 0.2 mm 2 mps 757 mmHg 49%
    19:00 +29°C° 0.2 mm 2 mps 757 mmHg 54%
    20:00 +27°C° 0.2 mm 2 mps 757 mmHg 58%
    21:00 +27°C° 0.2 mm 2 mps 757 mmHg 60%
    22:00 +26°C° 0.2 mm 2 mps 758 mmHg 61%
    23:00 +25°C° 0.2 mm 2 mps 758 mmHg 62%

    Day after tomorrow, 22 June, Saturday

    Time Temperature Precipitation Wind Pressure Humidity
    00:00 +25°C° 0 mm 2 mps 758 mmHg 63%
    01:00 +25°C° 0 mm 2 mps 758 mmHg 63%
    02:00 +24°C° 0 mm 2 mps 758 mmHg 63%
    03:00 +24°C° 0 mm 2 mps 758 mmHg 66%
    04:00 +24°C° 0 mm 2 mps 758 mmHg 68%
    05:00 +23°C° 0 mm 2 mps 758 mmHg 70%
    06:00 +25°C° 0 mm 2 mps 758 mmHg 65%
    07:00 +27°C° 0 mm 1 mps 759 mmHg 59%
    08:00 +29°C° 0 mm 1 mps 759 mmHg 54%
    09:00 +30°C° 0 mm 1 mps 759 mmHg 50%
    10:00 +32°C° 0 mm 1 mps 759 mmHg 45%
    11:00 +33°C° 0 mm 1 mps 759 mmHg 41%
    12:00 +34°C° 0 mm 2 mps 759 mmHg 41%
    13:00 +34°C° 0 mm 2 mps 759 mmHg 41%
    14:00 +34°C° 0 mm 3 mps 758 mmHg 41%
    15:00 +33°C° 0.1 mm 3 mps 758 mmHg 45%
    16:00 +33°C° 0.1 mm 3 mps 758 mmHg 49%
    17:00 +31°C° 0.1 mm 2 mps 757 mmHg 52%
    18:00 +30°C° 0.1 mm 2 mps 758 mmHg 56%
    19:00 +29°C° 0.1 mm 2 mps 758 mmHg 60%
    20:00 +28°C° 0.1 mm 2 mps 758 mmHg 63%
    21:00 +27°C° 0.1 mm 2 mps 758 mmHg 64%
    22:00 +27°C° 0.1 mm 2 mps 758 mmHg 65%
    23:00 +26°C° 0.1 mm 1 mps 758 mmHg 66%

    23 June, Sunday

    Time Temperature Precipitation Wind Pressure Humidity
    00:00 +26°C° 0 mm 2 mps 758 mmHg 66%
    01:00 +25°C° 0 mm 2 mps 758 mmHg 65%
    02:00 +25°C° 0 mm 2 mps 758 mmHg 65%
    03:00 +25°C° 0 mm 2 mps 758 mmHg 65%
    04:00 +25°C° 0 mm 2 mps 758 mmHg 65%
    05:00 +24°C° 0 mm 2 mps 758 mmHg 66%
    06:00 +26°C° 0 mm 2 mps 758 mmHg 63%
    07:00 +28°C° 0 mm 2 mps 758 mmHg 60%
    08:00 +29°C° 0 mm 1 mps 758 mmHg 57%
    09:00 +30°C° 0 mm 2 mps 758 mmHg 54%
    10:00 +31°C° 0 mm 2 mps 758 mmHg 51%
    11:00 +32°C° 0 mm 2 mps 758 mmHg 48%
    12:00 +34°C° 0 mm 2 mps 758 mmHg 47%
    13:00 +34°C° 0 mm 3 mps 758 mmHg 47%
    14:00 +34°C° 0 mm 3 mps 757 mmHg 47%
    15:00 +34°C° 0.1 mm 3 mps 757 mmHg 48%
    16:00 +32°C° 0.1 mm 2 mps 756 mmHg 49%
    17:00 +32°C° 0.1 mm 2 mps 756 mmHg 50%
    18:00 +30°C° 0 mm 2 mps 756 mmHg 56%
    19:00 +28°C° 0 mm 1 mps 756 mmHg 62%
    20:00 +27°C° 0 mm 1 mps 756 mmHg 67%
    21:00 +26°C° 0.2 mm 1 mps 756 mmHg 70%
    22:00 +26°C° 0.2 mm 1 mps 756 mmHg 72%
    23:00 +23°C° 0.2 mm 0 mps 756 mmHg 75%

    24 June, Monday

    Time Temperature Precipitation Wind Pressure Humidity
    00:00 +25°C° 0.2 mm 1 mps 756 mmHg 75%
    01:00 +25°C° 0.2 mm 1 mps 756 mmHg 75%
    02:00 +25°C° 0.2 mm 2 mps 756 mmHg 76%
    03:00 +24°C° 0 mm 2 mps 756 mmHg 77%
    04:00 +24°C° 0 mm 2 mps 756 mmHg 77%
    05:00 +24°C° 0 mm 2 mps 756 mmHg 78%
    06:00 +25°C° 0.1 mm 2 mps 756 mmHg 72%
    07:00 +27°C° 0.1 mm 2 mps 756 mmHg 66%
    08:00 +29°C° 0.1 mm 2 mps 756 mmHg 61%
    09:00 +30°C° 0.2 mm 2 mps 756 mmHg 54%
    10:00 +31°C° 0.2 mm 2 mps 757 mmHg 47%
    11:00 +34°C° 0.2 mm 2 mps 757 mmHg 40%
    12:00 +34°C° 0.1 mm 2 mps 757 mmHg 40%
    13:00 +34°C° 0.1 mm 2 mps 757 mmHg 40%
    14:00 +34°C° 0.1 mm 2 mps 757 mmHg 40%
    15:00 +33°C° 0.3 mm 3 mps 756 mmHg 46%
    16:00 +31°C° 0.3 mm 3 mps 756 mmHg 51%
    17:00 +30°C° 0.3 mm 3 mps 756 mmHg 57%
    18:00 +28°C° 0.4 mm 3 mps 757 mmHg 63%
    19:00 +27°C° 0.4 mm 3 mps 757 mmHg 68%
    20:00 +25°C° 0.4 mm 3 mps 757 mmHg 74%
    21:00 +25°C° 0.9 mm 3 mps 757 mmHg 74%
    22:00 +25°C° 0.9 mm 3 mps 758 mmHg 75%
    23:00 +25°C° 0.9 mm 3 mps 758 mmHg 76%

    25 June, Tuesday

    Time Temperature Precipitation Wind Pressure Humidity
    00:00 +25°C° 0.3 mm 3 mps 758 mmHg 76%
    01:00 +25°C° 0.3 mm 3 mps 758 mmHg 76%
    02:00 +24°C° 0.3 mm 3 mps 758 mmHg 76%
    03:00 +24°C° 0.1 mm 3 mps 758 mmHg 76%
    04:00 +24°C° 0.1 mm 3 mps 758 mmHg 76%
    05:00 +24°C° 0.1 mm 2 mps 758 mmHg 76%
    06:00 +26°C° 0 mm 2 mps 758 mmHg 70%
    07:00 +27°C° 0 mm 2 mps 759 mmHg 64%
    08:00 +29°C° 0 mm 2 mps 759 mmHg 59%
    09:00 +31°C° 0 mm 2 mps 759 mmHg 54%
    10:00 +32°C° 0 mm 2 mps 759 mmHg 49%
    11:00 +35°C° 0 mm 2 mps 759 mmHg 44%
    12:00 +34°C° 0.3 mm 2 mps 759 mmHg 45%
    13:00 +34°C° 0.3 mm 2 mps 759 mmHg 46%
    14:00 +34°C° 0.3 mm 2 mps 759 mmHg 48%
    15:00 +34°C° 0.3 mm 3 mps 759 mmHg 48%
    16:00 +34°C° 0.3 mm 3 mps 758 mmHg 48%
    17:00 +34°C° 0.3 mm 3 mps 758 mmHg 48%
    18:00 +33°C° 0.1 mm 4 mps 759 mmHg 52%
    19:00 +30°C° 0.1 mm 5 mps 759 mmHg 57%
    20:00 +29°C° 0.1 mm 6 mps 759 mmHg 62%
    21:00 +28°C° 0 mm 6 mps 759 mmHg 63%
    22:00 +27°C° 0 mm 5 mps 760 mmHg 65%
    23:00 +27°C° 0 mm 5 mps 760 mmHg 66%
    Show more